FW6490 Weather Reports


time (UTC)temp
F
wind
direction
speed
knots
gust
knots
rain 1hr
in
rain 24hr
in
rain mn
in
humidity
%
barometer
mb
20260509042254 54 329 0.9 2.6 0.00 0.00 0.00 89 1010.0
20260509041757 54 329 0.0 1.7 0.00 0.00 0.00 89 1010.0
20260509041252 54 329 0.9 3.5 0.00 0.00 0.00 89 1009.9
20260509040750 54 329 0.9 3.5 0.00 0.00 0.00 89 1009.9
20260509040249 54 329 0.9 3.5 0.00 0.00 0.00 89 1009.9
20260509035748 54 329 0.9 3.5 0.00 0.00 0.00 88 1009.9
20260509035246 54 329 0.9 3.5 0.00 0.00 0.00 88 1009.9
20260509034741 55 329 0.9 4.3 0.00 0.00 0.00 87 1009.9
20260509034241 55 329 0.0 4.3 0.00 0.00 0.00 87 1009.8
20260509033738 55 329 0.0 1.7 0.00 0.00 0.00 86 1009.8
20260509033240 55 329 0.9 3.5 0.00 0.00 0.00 86 1009.8
20260509032732 55 329 0.9 3.5 0.00 0.00 0.00 86 1009.5
20260509032232 56 329 0.9 3.5 0.00 0.00 0.00 85 1009.5
20260509031730 56 329 1.7 3.5 0.00 0.00 0.00 85 1009.6
20260509031227 56 329 0.9 3.5 0.00 0.00 0.00 84 1009.5
20260509030726 56 329 0.9 3.5 0.00 0.00 0.00 84 1009.5
20260509030224 57 329 0.9 3.5 0.00 0.00 0.00 84 1009.5
20260509025719 57 329 0.9 2.6 0.00 0.00 0.00 83 1009.4
20260509025224 57 329 0.9 4.3 0.00 0.00 0.00 83 1009.4
20260509024722 57 329 1.7 4.3 0.00 0.00 0.00 83 1009.4
20260509023717 58 329 2.6 5.2 0.00 0.00 0.00 82 1009.1
20260509023216 58 329 2.6 5.2 0.00 0.00 0.00 81 1009.1
20260509022712 58 331 1.7 4.3 0.00 0.00 0.00 81 1009.0
20260509021713 59 327 3.5 5.2 0.00 0.00 0.00 80 1009.0
20260509021212 59 324 3.5 7.0 0.00 0.00 0.00 79 1009.0
20260509020713 59 327 3.5 8.7 0.00 0.00 0.00 78 1009.0
20260509020212 60 314 3.5 8.7 0.00 0.00 0.00 77 1009.0
20260509015708 61 335 2.6 5.2 0.00 0.00 0.00 77 1009.0
20260509015208 61 315 3.5 7.0 0.00 0.00 0.00 76 1009.0
20260509014707 61 309 3.5 7.8 0.00 0.00 0.00 76 1009.0
20260509013705 62 317 4.3 8.7 0.00 0.00 0.00 75 1009.0
20260509013207 62 314 4.3 7.8 0.00 0.00 0.00 75 1009.0
20260509012702 62 323 3.5 7.8 0.00 0.00 0.00 73 1009.0
20260509011658 63 347 4.3 9.6 0.00 0.00 0.00 73 1009.0
20260509010150 64 319 5.2 12.2 0.00 0.00 0.00 72 1008.9
20260509005649 64 321 4.3 8.7 0.00 0.00 0.00 72 1009.0
20260509005146 65 305 4.3 9.6 0.00 0.00 0.00 71 1009.0
20260509004643 65 316 4.3 9.6 0.00 0.00 0.00 69 1009.0
20260509004141 66 336 3.5 7.8 0.00 0.00 0.00 69 1009.1
20260509003642 66 321 3.5 7.8 0.00 0.00 0.00 69 1009.1
20260509002640 66 315 4.3 9.6 0.00 0.00 0.00 69 1009.2
20260509002134 66 313 4.3 9.6 0.00 0.00 0.00 68 1009.2
20260509001635 66 294 4.3 12.2 0.00 0.00 0.00 68 1009.2
20260509001133 67 316 4.3 12.2 0.00 0.00 0.00 67 1009.3
20260509000633 67 5 4.3 8.7 0.00 0.00 0.00 67 1009.3
20260509000133 67 318 4.3 7.8 0.00 0.00 0.00 67 1009.3
20260508235632 67 351 4.3 10.4 0.00 0.00 0.00 67 1009.3
20260508235129 67 310 4.3 10.4 0.00 0.00 0.00 67 1009.3
20260508233619 67 290 5.2 10.4 0.00 0.00 0.00 68 1009.6
20260508232618 67 355 5.2 11.3 0.00 0.00 0.00 67 1009.7
20260508232119 67 21 6.1 13.0 0.00 0.00 0.00 67 1009.7
20260508231617 67 299 6.1 13.0 0.00 0.00 0.00 65 1009.7
20260508231112 68 288 5.2 11.3 0.00 0.00 0.00 64 1009.8
20260508230611 69 322 4.3 9.6 0.00 0.00 0.00 65 1009.8
20260508230111 69 309 4.3 8.7 0.00 0.00 0.00 65 1009.8
20260508225611 68 343 4.3 10.4 0.00 0.00 0.00 66 1009.8
20260508225112 68 313 5.2 11.3 0.00 0.00 0.00 66 1009.8
20260508224608 68 313 6.1 11.3 0.00 0.00 0.00 65 1009.8
20260508224110 69 285 4.3 9.6 0.00 0.00 0.00 64 1010.2
20260508223609 69 294 4.3 9.6 0.00 0.00 0.00 64 1010.2
20260508223107 69 309 5.2 12.2 0.00 0.00 0.00 65 1010.2
20260508222609 69 266 5.2 12.2 0.00 0.00 0.00 64 1010.2
20260508222107 70 290 4.3 9.6 0.00 0.00 0.00 64 1010.2
20260508221606 69 313 5.2 9.6 0.00 0.00 0.00 65 1010.2
20260508221107 70 303 4.3 9.6 0.00 0.00 0.00 65 1010.5
20260508220605 70 285 4.3 9.6 0.00 0.00 0.00 64 1010.5
20260508220109 70 310 4.3 9.6 0.00 0.00 0.00 64 1010.5
20260508215605 70 314 4.3 9.6 0.00 0.00 0.00 64 1010.7
20260508215106 70 325 4.3 8.7 0.00 0.00 0.00 66 1010.7
20260508214605 69 320 4.3 11.3 0.00 0.00 0.00 66 1010.7
20260508214103 69 301 4.3 11.3 0.00 0.00 0.00 64 1010.7
20260508213602 70 5 3.5 8.7 0.00 0.00 0.00 65 1010.7
20260508212100 67 304 6.1 11.3 0.00 0.00 0.00 69 1010.8
20260508211559 67 309 6.1 12.2 0.00 0.00 0.00 68 1010.8
20260508211057 68 321 6.1 12.2 0.00 0.00 0.00 67 1010.8
20260508210558 68 329 6.1 11.3 0.00 0.00 0.00 67 1010.8
20260508210057 68 311 6.1 12.2 0.00 0.00 0.00 67 1010.8
20260508205553 68 321 6.1 12.2 0.00 0.00 0.00 66 1010.8
20260508205053 70 321 5.2 10.4 0.00 0.00 0.00 64 1010.8
20260508204553 70 5 5.2 9.6 0.00 0.00 0.00 64 1010.8
20260508203553 71 313 4.3 9.6 0.00 0.00 0.00 62 1011.0
20260508203052 71 307 4.3 9.6 0.00 0.00 0.00 64 1011.0
20260508202552 70 314 5.2 9.6 0.00 0.00 0.00 64 1011.1
20260508202053 70 314 5.2 9.6 0.00 0.00 0.00 64 1011.1
20260508200051 71 319 4.3 7.8 0.00 0.00 0.00 64 1011.2
20260508195542 70 309 4.3 7.8 0.00 0.00 0.00 65 1011.2
20260508195043 70 317 3.5 7.0 0.00 0.00 0.00 65 1011.2
20260508194541 70 317 3.5 7.8 0.00 0.00 0.00 65 1011.2
20260508194038 70 321 4.3 7.8 0.00 0.00 0.00 65 1011.3
20260508193540 70 313 3.5 7.8 0.00 0.00 0.00 64 1011.3
20260508193040 70 321 3.5 7.8 0.00 0.00 0.00 64 1011.3
20260508192040 72 270 3.5 7.8 0.00 0.00 0.00 62 1011.6
20260508191542 73 321 3.5 6.1 0.00 0.00 0.00 61 1011.6
20260508191037 73 325 2.6 7.0 0.00 0.00 0.00 61 1011.7
20260508190535 73 355 2.6 7.0 0.00 0.00 0.00 61 1011.7
20260508190033 73 5 2.6 7.0 0.00 0.00 0.00 61 1011.7
20260508185529 72 318 1.7 6.1 0.00 0.00 0.00 64 1011.8
20260508185029 72 336 2.6 6.1 0.00 0.00 0.00 63 1011.8
20260508184529 71 294 2.6 6.1 0.00 0.00 0.00 64 1011.8
20260508184026 70 355 3.5 6.1 0.00 0.00 0.00 66 1011.9
20260508183527 70 331 3.5 6.1 0.00 0.00 0.00 65 1011.9
20260508183026 69 355 3.5 8.7 0.00 0.00 0.00 67 1011.9
20260508182522 69 329 3.5 8.7 0.00 0.00 0.00 66 1012.0
20260508182017 69 315 3.5 7.0 0.00 0.00 0.00 66 1012.0
20260508181520 69 324 3.5 7.0 0.00 0.00 0.00 68 1012.0
20260508181016 69 326 3.5 7.0 0.00 0.00 0.00 66 1011.9
20260508180512 69 0 2.6 6.1 0.00 0.00 0.00 67 1011.9
20260508180011 69 333 1.7 5.2 0.00 0.00 0.00 66 1011.9
20260508175510 69 334 2.6 7.0 0.00 0.00 0.00 67 1011.9
20260508175010 69 335 2.6 7.0 0.00 0.00 0.00 67 1011.9
20260508174511 68 322 2.6 6.1 0.00 0.00 0.00 69 1011.9
20260508174011 67 355 3.5 6.1 0.00 0.00 0.00 70 1012.1
20260508173509 67 319 2.6 6.1 0.00 0.00 0.00 68 1012.1
20260508173011 67 343 2.6 5.2 0.00 0.00 0.00 70 1012.1
20260508172507 67 326 2.6 6.1 0.00 0.00 0.00 69 1012.3
20260508172006 67 330 1.7 5.2 0.00 0.00 0.00 71 1012.3
20260508171505 66 340 2.6 7.0 0.00 0.00 0.00 73 1012.3
20260508171006 66 311 2.6 7.8 0.00 0.00 0.00 72 1012.3
20260508170000 66 325 1.7 5.2 0.00 0.00 0.00 72 1012.3
20260508165458 65 140 1.7 3.5 0.00 0.00 0.00 75 1012.3
20260508164956 64 14 1.7 4.3 0.00 0.00 0.00 76 1012.3
20260508164455 64 15 0.9 4.3 0.00 0.00 0.00 76 1012.3
20260508164003 63 15 0.9 3.5 0.00 0.00 0.00 77 1012.3
20260508162954 61 12 1.7 4.3 0.00 0.00 0.00 79 1012.3
20260508162454 61 14 1.7 3.5 0.00 0.00 0.00 80 1012.3
20260508161450 61 9 1.7 4.3 0.00 0.00 0.00 79 1012.3
20260508160948 61 11 0.9 4.3 0.00 0.00 0.00 80 1012.3
20260508160447 60 355 0.9 4.3 0.00 0.00 0.00 81 1012.3
20260508155949 60 344 0.9 3.5 0.00 0.00 0.00 82 1012.3
20260508154450 58 350 0.9 3.5 0.00 0.00 0.00 84 1012.3
20260508153440 57 350 0.9 4.3 0.00 0.00 0.00 87 1012.2
20260508152932 56 350 0.9 3.5 0.00 0.00 0.00 89 1012.2
20260508152433 55 350 0.9 3.5 0.00 0.00 0.00 89 1012.2
20260508151933 55 350 0.9 2.6 0.00 0.00 0.00 90 1012.2
20260508151429 54 350 1.7 4.3 0.00 0.00 0.00 90 1012.2
20260508150930 54 350 1.7 4.3 0.00 0.00 0.00 91 1012.2
20260508150427 54 350 1.7 4.3 0.00 0.00 0.00 91 1012.2
20260508145927 54 350 1.7 4.3 0.00 0.00 0.00 91 1012.2
20260508145423 54 350 1.7 4.3 0.00 0.00 0.00 91 1012.5
20260508144920 54 350 1.7 4.3 0.00 0.00 0.00 92 1012.5
20260508144420 53 351 1.7 4.3 0.00 0.00 0.00 92 1012.5
20260508143915 53 350 1.7 6.1 0.00 0.00 0.00 92 1012.5
20260508143414 53 355 1.7 6.1 0.00 0.00 0.00 92 1012.5
20260508142913 53 329 1.7 6.1 0.00 0.00 0.00 92 1012.5
20260508141911 53 327 2.6 6.1 0.00 0.00 0.00 92 1012.2
20260508141415 53 0 2.6 6.1 0.00 0.00 0.00 92 1012.2
20260508140412 53 327 1.7 4.3 0.00 0.00 0.00 93 1012.1
20260508135909 53 316 1.7 6.1 0.00 0.00 0.00 93 1012.1
20260508135405 53 319 2.6 6.1 0.00 0.00 0.00 93 1012.1
20260508134401 53 294 1.7 6.1 0.00 0.00 0.00 93 1012.1
20260508132854 53 279 1.7 6.1 0.00 0.00 0.00 94 1011.9
20260508131854 53 298 1.7 4.3 0.00 0.00 0.00 94 1011.9
20260508131350 53 298 1.7 4.3 0.00 0.00 0.00 94 1011.7
20260508130850 53 331 0.9 4.3 0.00 0.00 0.00 94 1011.7
20260508130348 53 332 1.7 4.3 0.00 0.00 0.00 94 1011.7
20260508125847 53 332 1.7 4.3 0.00 0.00 0.00 94 1011.6
20260508125346 53 329 1.7 4.3 0.00 0.00 0.00 94 1011.6
20260508124848 53 329 1.7 4.3 0.00 0.00 0.00 94 1011.6
20260508124347 53 329 1.7 5.2 0.00 0.00 0.00 94 1011.6
20260508123849 53 274 2.6 5.2 0.00 0.00 0.00 94 1011.6
20260508123343 53 289 2.6 5.2 0.00 0.00 0.00 94 1011.6
20260508122842 53 319 2.6 5.2 0.00 0.00 0.00 94 1011.6
20260508122340 53 321 1.7 5.2 0.00 0.00 0.00 94 1011.6
20260508121336 53 322 0.9 3.5 0.00 0.00 0.00 94 1011.5
20260508120834 53 320 1.7 3.5 0.00 0.00 0.00 94 1011.5
20260508115831 53 320 1.7 4.3 0.00 0.00 0.00 94 1011.5
20260508115323 53 321 0.9 3.5 0.00 0.00 0.00 94 1011.5
20260508114821 53 321 1.7 3.5 0.00 0.00 0.00 94 1011.5
20260508114320 53 302 1.7 3.5 0.00 0.00 0.00 94 1011.5
20260508113820 53 346 1.7 4.3 0.00 0.00 0.00 94 1011.5
20260508113316 53 346 1.7 4.3 0.00 0.00 0.00 94 1011.5
20260508112816 53 310 1.7 4.3 0.00 0.00 0.00 94 1011.3
20260508112309 53 307 1.7 4.3 0.00 0.00 0.00 94 1011.3
20260508111810 53 306 1.7 4.3 0.00 0.00 0.00 94 1011.3
20260508111305 53 305 1.7 4.3 0.00 0.00 0.00 94 1011.2
20260508110800 53 335 2.6 5.2 0.00 0.00 0.00 94 1011.2
20260508110304 53 336 2.6 6.1 0.00 0.00 0.00 94 1011.2
20260508105801 53 339 2.6 6.1 0.00 0.00 0.00 94 1011.2
20260508105258 53 332 2.6 6.1 0.00 0.00 0.00 94 1011.2
20260508104756 53 313 2.6 6.1 0.00 0.00 0.00 93 1011.2
20260508104255 54 327 2.6 5.2 0.00 0.00 0.00 93 1011.2
20260508103751 54 344 1.7 4.3 0.00 0.00 0.00 93 1011.2
20260508103246 54 338 0.9 4.3 0.00 0.00 0.00 93 1011.2
20260508102745 53 276 0.0 2.6 0.00 0.00 0.00 93 1011.3
20260508102247 53 275 0.9 3.5 0.00 0.00 0.00 93 1011.3
20260508101742 53 275 0.9 4.3 0.00 0.00 0.00 93 1011.3
20260508095232 54 300 0.9 3.5 0.00 0.00 0.00 93 1011.5
20260508094733 54 300 0.9 3.5 0.00 0.00 0.00 93 1011.5
20260508094231 54 301 0.9 3.5 0.00 0.00 0.00 93 1011.5
20260508093725 54 288 0.9 5.2 0.00 0.00 0.00 93 1011.5
20260508093227 54 288 1.7 5.2 0.00 0.00 0.00 93 1011.5
20260508092231 54 331 0.9 3.5 0.00 0.00 0.00 93 1011.5
20260508091726 54 329 1.7 4.3 0.00 0.00 0.00 93 1011.5
20260508091223 54 334 0.9 4.3 0.00 0.00 0.00 93 1011.6
20260508090721 54 321 0.0 3.5 0.00 0.00 0.00 93 1011.6
20260508090219 54 321 0.0 2.6 0.00 0.00 0.00 93 1011.6
20260508084720 54 321 0.9 2.6 0.00 0.00 0.00 93 1011.6
20260508084218 54 321 0.9 1.7 0.00 0.00 0.00 93 1011.5
20260508083718 54 321 0.9 3.5 0.00 0.00 0.00 92 1011.5
20260508082712 54 321 0.0 1.7 0.00 0.00 0.00 92 1011.6
20260508082211 54 321 0.9 2.6 0.00 0.00 0.00 92 1011.6
20260508081709 54 321 0.9 2.6 0.00 0.00 0.00 92 1011.6
20260508081210 54 321 0.9 3.5 0.00 0.00 0.00 92 1011.6
20260508080711 54 321 0.9 3.5 0.00 0.00 0.00 92 1011.6
20260508080209 54 321 0.9 2.6 0.00 0.00 0.00 92 1011.6
20260508075707 54 321 0.9 2.6 0.00 0.00 0.00 92 1011.6
20260508075210 54 321 0.9 2.6 0.00 0.00 0.00 92 1011.6
20260508074207 54 321 0.0 1.7 0.00 0.00 0.00 92 1011.6
20260508073702 54 321 0.9 3.5 0.00 0.00 0.00 92 1011.6
20260508072656 54 323 0.9 1.7 0.00 0.00 0.00 92 1011.6
20260508072157 54 323 0.9 3.5 0.00 0.00 0.00 92 1011.6
20260508071656 54 323 0.9 3.5 0.00 0.00 0.00 91 1011.6
20260508071156 54 323 0.0 1.7 0.00 0.00 0.00 92 1011.6
20260508070652 54 323 0.0 1.7 0.00 0.00 0.00 91 1011.6
20260508070156 54 323 0.0 1.7 0.00 0.00 0.00 91 1011.6
20260508065653 54 323 0.9 2.6 0.00 0.00 0.00 91 1011.6
20260508065146 55 323 0.9 2.6 0.00 0.00 0.00 91 1011.6
20260508064646 55 323 0.9 2.6 0.00 0.00 0.00 91 1011.6
20260508064140 55 323 0.9 2.6 0.00 0.00 0.00 91 1011.6
20260508063640 55 323 0.9 1.7 0.00 0.00 0.00 91 1011.6
20260508063139 55 323 0.9 3.5 0.00 0.00 0.00 91 1011.6
20260508062635 55 323 0.9 3.5 0.00 0.00 0.00 91 1011.6
20260508062142 55 331 0.9 3.5 0.00 0.00 0.00 90 1011.6
20260508061636 55 331 0.9 2.6 0.00 0.00 0.00 90 1011.6
20260508061130 55 331 0.0 2.6 0.00 0.00 0.00 90 1011.6
20260508060630 55 331 0.0 1.7 0.00 0.00 0.00 90 1011.6
20260508060127 55 331 0.0 1.7 0.00 0.00 0.00 90 1011.6
20260508055628 55 331 0.0 1.7 0.00 0.00 0.00 90 1011.6
20260508055128 56 331 0.0 1.7 0.00 0.00 0.00 89 1011.6
20260508054624 56 331 0.0 1.7 0.00 0.00 0.00 89 1011.6
20260508054124 56 331 0.0 0.9 0.00 0.00 0.00 90 1011.6
20260508053621 56 331 0.0 1.7 0.00 0.00 0.00 90 1011.6
20260508052117 56 331 0.0 2.6 0.00 0.00 0.00 89 1011.6
20260508051617 56 331 0.9 2.6 0.00 0.00 0.00 89 1011.6
20260508051114 56 331 0.9 2.6 0.00 0.00 0.00 89 1011.7
20260508050613 56 331 0.9 2.6 0.00 0.00 0.00 89 1011.7
20260508050112 56 331 0.9 2.6 0.00 0.00 0.00 89 1011.7
20260508045609 56 331 0.9 2.6 0.00 0.00 0.00 89 1011.6
20260508045109 56 331 0.0 1.7 0.00 0.00 0.00 89 1011.6
20260508044607 56 331 0.9 1.7 0.00 0.00 0.00 89 1011.6
20260508044104 56 331 0.9 1.7 0.00 0.00 0.00 89 1011.6
20260508043559 56 331 0.9 2.6 0.00 0.00 0.00 89 1011.6
20260508043105 56 331 0.9 2.6 0.00 0.00 0.00 89 1011.6